Location: Breitenfeld
(46.8500°N, 15.6333°E)
Time: 10:19:31
(UTC+00:00)

Transit 4B - Pass Details

Date: 06 June 2022
Orbit: 948 x 1097 km, 32.4° (Epoch: 01 July)

Event Time Altitude Azimuth Distance (km) Brightness Sun altitude
Rises 22:42:27 0° 240° (WSW) 3,870 11.4 -20.4°
Enters shadow 22:42:33 - 240° (WSW) 3,842 11.4 -20.4°
Exits shadow 22:58:26 - 117° (ESE) 3,374 11.1 -20.4°
Sets 22:59:39 0° 113° (ESE) 3,744 11.3 -20.4°
